Laredo, TX

2:32 AM CDT on April 20, 2018 (GMT -0500)
Laredo International

Weather History for KLRD - November, 2012

Change the Weather History Date:

Friday, November 9, 2012

  Actual Average Record
Temperature  
Mean Temperature 78 °F 68 °F  
Max Temperature 89 °F 79 °F 95 °F (1966)
Min Temperature 67 °F 58 °F 30 °F (1913)
Degree Days  
Heating Degree Days 0 2  
Month to date heating degree days 0 15  
Since 1 July heating degree days 13 27  
Cooling Degree Days 13 5  
Month to date cooling degree days 117 57  
Year to date cooling degree days 4988 4186  
Growing Degree Days 27 (Base 50)    
Moisture  
Dew Point 59 °F    
Average Humidity 56    
Maximum Humidity 84    
Minimum Humidity 31    
Precipitation  
Precipitation 0.00 in 0.04 in 1.73 in (1928)
Month to date precipitation 0.00 0.42  
Year to date precipitation 8.79 18.55  
Sea Level Pressure  
Sea Level Pressure 29.96 in    
Wind  
Wind Speed 18 mph (SSE)    
Max Wind Speed 27 mph    
Max Gust Speed 30 mph    
Visibility 10 miles    
Events      
T = Trace of Precipitation, MM = Missing Value Source: NWS Daily Summary

Daily Weather History Graph

Daily Weather History Graph

Search for Another Location

Airport or City:

Astronomy

Nov. 09, 2012 Rise Set
Actual Time 6:54 AM CST 5:48 PM CST
Civil Twilight 6:30 AM CST 6:13 PM CST
Nautical Twilight 6:02 AM CST 6:41 PM CST
Astronomical Twilight 5:34 AM CST 7:08 PM CST
Moon 2:18 AM CST (11/9) 2:42 PM CST (11/9)
Length of Visible Light 11h 42m
Length of Day
10h 54m
Waning Crescent, 23% of the Moon is Illuminated
Nov 9
Waning Crescent
Nov 13
New
Nov 20
First Quarter
Nov 28
Full
Dec 6
Last Quarter

Hourly Weather History & Observations

Time (CST) Temp. Heat Index Dew Point Humidity Pressure Visibility Wind Dir Wind Speed Gust Speed Precip Events Conditions
12:56 AM 72.0 °F - 63.0 °F 73% 29.99 in 10.0 mi SSE 16.1 mph - N/A   Clear
1:56 AM 72.0 °F - 61.9 °F 70% 29.98 in 10.0 mi SSE 16.1 mph - N/A   Clear
2:56 AM 70.9 °F - 61.0 °F 71% 29.97 in 10.0 mi SSE 18.4 mph - N/A   Clear
3:56 AM 70.0 °F - 61.9 °F 75% 29.97 in 10.0 mi SSE 15.0 mph - N/A   Clear
4:56 AM 70.0 °F - 61.9 °F 75% 29.97 in 10.0 mi SSE 17.3 mph - N/A   Clear
5:56 AM 68.9 °F - 61.9 °F 78% 29.97 in 10.0 mi SSE 12.7 mph - N/A   Clear
6:56 AM 66.9 °F - 61.9 °F 84% 29.99 in 10.0 mi SE 11.5 mph - N/A   Clear
7:56 AM 68.9 °F - 63.0 °F 81% 30.00 in 10.0 mi SSE 13.8 mph - N/A   Clear
8:56 AM 72.9 °F - 61.9 °F 68% 30.01 in 10.0 mi SSE 18.4 mph 25.3 mph N/A   Clear
9:56 AM 77.0 °F - 61.0 °F 58% 30.03 in 10.0 mi South 20.7 mph - N/A   Clear
10:56 AM 81.9 °F 81.8 °F 57.9 °F 44% 30.01 in 10.0 mi South 21.9 mph 28.8 mph N/A   Clear
11:56 AM 84.9 °F 83.7 °F 55.9 °F 37% 29.98 in 10.0 mi SSE 21.9 mph 29.9 mph N/A   Clear
12:56 PM 88.0 °F 86.5 °F 55.9 °F 34% 29.95 in 10.0 mi SSE 23.0 mph 27.6 mph N/A   Clear
1:56 PM 88.9 °F 86.9 °F 54.9 °F 31% 29.91 in 10.0 mi South 21.9 mph - N/A   Clear
2:56 PM 88.9 °F 86.9 °F 54.9 °F 31% 29.89 in 10.0 mi SSE 20.7 mph 28.8 mph N/A   Clear
3:56 PM 88.0 °F 86.1 °F 54.9 °F 32% 29.88 in 10.0 mi SE 19.6 mph 27.6 mph N/A   Clear
4:56 PM 86.0 °F 84.3 °F 54.9 °F 34% 29.89 in 6.0 mi SE 24.2 mph - N/A   Haze
5:56 PM 83.8 °F 82.8 °F 55.9 °F 38% 29.91 in 9.0 mi SE 16.1 mph - N/A   Clear
6:56 PM 81.0 °F 80.8 °F 55.9 °F 42% 29.93 in 10.0 mi SE 17.3 mph - N/A   Clear
7:56 PM 79.0 °F - 55.9 °F 45% 29.94 in 10.0 mi SE 21.9 mph 27.6 mph N/A   Clear
8:56 PM 77.0 °F - 56.8 °F 50% 29.95 in 10.0 mi SE 17.3 mph 26.5 mph N/A   Clear
9:56 PM 74.8 °F - 59.0 °F 58% 29.97 in 10.0 mi SSE 18.4 mph - N/A   Clear
10:56 PM 73.9 °F - 61.0 °F 64% 29.97 in 10.0 mi SSE 20.7 mph - N/A   Clear
11:56 PM 72.9 °F - 61.0 °F 66% 29.97 in 10.0 mi SSE 16.1 mph - N/A   Clear